• în Republica Moldova
  • Lista ţărilor
  • Pe 7 zile
  • Temperatura apei
  • Hartă satelitară
  • Meteo pe hartă
  • Widget-uri
  • user-avatar
    Intrare

    Meteo pe oră la Kerns

    Astăzi, 22 Septembrie, Vineri

    Timp Temperatura Precipitaţii Vânt Presiune Umiditate
    00:00 +21°C° 0 mm 3 m/s 761 mmHg 96%
    01:00 +21°C° 0 mm 3 m/s 761 mmHg 97%
    02:00 +21°C° 0 mm 3 m/s 761 mmHg 97%
    03:00 +21°C° 0 mm 3 m/s 761 mmHg 97%
    04:00 +21°C° 0 mm 3 m/s 760 mmHg 97%
    05:00 +21°C° 0 mm 3 m/s 761 mmHg 96%
    06:00 +22°C° 0 mm 3 m/s 761 mmHg 95%
    07:00 +22°C° 0 mm 3 m/s 762 mmHg 94%
    08:00 +25°C° 0 mm 3 m/s 762 mmHg 83%
    09:00 +28°C° 0 mm 3 m/s 762 mmHg 72%
    10:00 +30°C° 0 mm 3 m/s 762 mmHg 61%
    11:00 +31°C° 0 mm 3 m/s 761 mmHg 58%
    12:00 +33°C° 0 mm 4 m/s 761 mmHg 54%
    13:00 +34°C° 0 mm 4 m/s 760 mmHg 50%
    14:00 +33°C° 0 mm 4 m/s 760 mmHg 53%
    15:00 +33°C° 0 mm 4 m/s 760 mmHg 55%
    16:00 +31°C° 0 mm 3 m/s 759 mmHg 58%
    17:00 +29°C° 0 mm 3 m/s 760 mmHg 69%
    18:00 +27°C° 0 mm 3 m/s 760 mmHg 81%
    19:00 +25°C° 0 mm 3 m/s 760 mmHg 92%
    20:00 +25°C° 0 mm 3 m/s 761 mmHg 93%
    21:00 +24°C° 0 mm 3 m/s 761 mmHg 93%
    22:00 +24°C° 0 mm 3 m/s 762 mmHg 94%
    23:00 +24°C° 0 mm 3 m/s 761 mmHg 94%

    Mâine, 23 Septembrie, Sâmbătă

    Timp Temperatura Precipitaţii Vânt Presiune Umiditate
    00:00 +24°C° 0 mm 3 m/s 761 mmHg 95%
    01:00 +22°C° 0 mm 3 m/s 761 mmHg 95%
    02:00 +22°C° 0 mm 3 m/s 761 mmHg 95%
    03:00 +22°C° 0 mm 3 m/s 761 mmHg 95%
    04:00 +22°C° 0 mm 3 m/s 760 mmHg 96%
    05:00 +22°C° 0 mm 3 m/s 761 mmHg 95%
    06:00 +22°C° 0 mm 3 m/s 761 mmHg 94%
    07:00 +22°C° 0 mm 3 m/s 762 mmHg 93%
    08:00 +25°C° 0 mm 3 m/s 762 mmHg 80%
    09:00 +28°C° 0 mm 3 m/s 762 mmHg 68%
    10:00 +30°C° 0 mm 3 m/s 762 mmHg 55%
    11:00 +31°C° 0 mm 3 m/s 762 mmHg 50%
    12:00 +33°C° 0 mm 3 m/s 761 mmHg 45%
    13:00 +34°C° 0 mm 4 m/s 760 mmHg 41%
    14:00 +33°C° 0 mm 4 m/s 760 mmHg 43%
    15:00 +33°C° 0 mm 4 m/s 760 mmHg 44%
    16:00 +32°C° 0 mm 4 m/s 759 mmHg 46%
    17:00 +29°C° 0 mm 3 m/s 760 mmHg 60%
    18:00 +27°C° 0 mm 3 m/s 760 mmHg 73%
    19:00 +24°C° 0 mm 3 m/s 760 mmHg 86%
    20:00 +24°C° 0 mm 3 m/s 761 mmHg 89%
    21:00 +22°C° 0 mm 3 m/s 761 mmHg 93%
    22:00 +21°C° 0 mm 3 m/s 762 mmHg 96%
    23:00 +21°C° 0 mm 3 m/s 762 mmHg 96%

    Poimâine, 24 Septembrie, Duminică

    Timp Temperatura Precipitaţii Vânt Presiune Umiditate
    00:00 +21°C° 0 mm 3 m/s 761 mmHg 96%
    01:00 +21°C° 0 mm 3 m/s 761 mmHg 96%
    02:00 +21°C° 0 mm 3 m/s 761 mmHg 96%
    03:00 +21°C° 0 mm 3 m/s 760 mmHg 97%
    04:00 +21°C° 0 mm 3 m/s 760 mmHg 97%
    05:00 +21°C° 0 mm 3 m/s 761 mmHg 95%
    06:00 +21°C° 0 mm 3 m/s 761 mmHg 94%
    07:00 +22°C° 0 mm 3 m/s 761 mmHg 93%
    08:00 +25°C° 0 mm 3 m/s 761 mmHg 81%
    09:00 +27°C° 0 mm 4 m/s 762 mmHg 68%
    10:00 +29°C° 0 mm 4 m/s 762 mmHg 56%
    11:00 +30°C° 0 mm 4 m/s 761 mmHg 52%
    12:00 +32°C° 0 mm 4 m/s 761 mmHg 48%
    13:00 +33°C° 0 mm 4 m/s 760 mmHg 43%
    14:00 +32°C° 0 mm 4 m/s 759 mmHg 46%
    15:00 +32°C° 0 mm 4 m/s 759 mmHg 48%
    16:00 +30°C° 0 mm 4 m/s 759 mmHg 50%
    17:00 +28°C° 0 mm 3 m/s 759 mmHg 62%
    18:00 +26°C° 0 mm 3 m/s 760 mmHg 74%
    19:00 +22°C° 0 mm 3 m/s 760 mmHg 86%
    20:00 +22°C° 0 mm 3 m/s 761 mmHg 89%
    21:00 +21°C° 0 mm 3 m/s 761 mmHg 92%
    22:00 +20°C° 0 mm 3 m/s 761 mmHg 95%
    23:00 +20°C° 0 mm 3 m/s 761 mmHg 95%

    25 Septembrie, Luni

    Timp Temperatura Precipitaţii Vânt Presiune Umiditate
    00:00 +20°C° 0 mm 2 m/s 761 mmHg 95%
    01:00 +19°C° 0 mm 2 m/s 760 mmHg 95%
    02:00 +19°C° 0 mm 2 m/s 760 mmHg 95%
    03:00 +19°C° 0 mm 2 m/s 760 mmHg 96%
    04:00 +19°C° 0 mm 2 m/s 760 mmHg 96%
    05:00 +19°C° 0 mm 2 m/s 760 mmHg 94%
    06:00 +20°C° 0 mm 3 m/s 761 mmHg 93%
    07:00 +20°C° 0 mm 3 m/s 761 mmHg 91%
    08:00 +24°C° 0 mm 3 m/s 761 mmHg 78%
    09:00 +26°C° 0 mm 3 m/s 762 mmHg 66%
    10:00 +29°C° 0 mm 3 m/s 762 mmHg 53%
    11:00 +30°C° 0 mm 4 m/s 761 mmHg 49%
    12:00 +32°C° 0 mm 4 m/s 760 mmHg 45%
    13:00 +33°C° 0 mm 4 m/s 760 mmHg 42%
    14:00 +32°C° 0 mm 4 m/s 759 mmHg 44%
    15:00 +32°C° 0 mm 4 m/s 759 mmHg 46%
    16:00 +32°C° 0 mm 4 m/s 758 mmHg 49%
    17:00 +28°C° 0 mm 3 m/s 759 mmHg 61%
    18:00 +26°C° 0 mm 3 m/s 759 mmHg 73%
    19:00 +22°C° 0 mm 3 m/s 760 mmHg 85%
    20:00 +22°C° 0 mm 3 m/s 760 mmHg 88%
    21:00 +21°C° 0 mm 2 m/s 761 mmHg 92%
    22:00 +20°C° 0 mm 2 m/s 761 mmHg 95%
    23:00 +20°C° 0 mm 2 m/s 761 mmHg 96%

    26 Septembrie, Marţi

    Timp Temperatura Precipitaţii Vânt Presiune Umiditate
    00:00 +20°C° 0 mm 2 m/s 760 mmHg 96%
    01:00 +19°C° 0 mm 2 m/s 760 mmHg 97%
    02:00 +19°C° 0 mm 2 m/s 760 mmHg 97%
    03:00 +19°C° 0 mm 2 m/s 760 mmHg 97%
    04:00 +19°C° 0 mm 2 m/s 760 mmHg 97%
    05:00 +20°C° 0 mm 2 m/s 760 mmHg 95%
    06:00 +20°C° 0 mm 2 m/s 761 mmHg 94%
    07:00 +20°C° 0 mm 2 m/s 761 mmHg 93%
    08:00 +24°C° 0 mm 2 m/s 761 mmHg 79%
    09:00 +27°C° 0 mm 2 m/s 761 mmHg 64%
    10:00 +30°C° 0 mm 3 m/s 761 mmHg 50%
    11:00 +31°C° 0 mm 3 m/s 761 mmHg 47%
    12:00 +33°C° 0 mm 3 m/s 760 mmHg 43%
    13:00 +34°C° 0 mm 3 m/s 759 mmHg 40%
    14:00 +34°C° 0 mm 3 m/s 759 mmHg 43%
    15:00 +33°C° 0 mm 3 m/s 759 mmHg 46%
    16:00 +33°C° 0 mm 3 m/s 758 mmHg 50%
    17:00 +29°C° 0 mm 3 m/s 759 mmHg 62%
    18:00 +27°C° 0 mm 3 m/s 759 mmHg 74%
    19:00 +24°C° 0 mm 2 m/s 760 mmHg 87%
    20:00 +24°C° 0 mm 2 m/s 760 mmHg 90%
    21:00 +23°C° 0 mm 2 m/s 760 mmHg 93%
    22:00 +23°C° 0 mm 2 m/s 761 mmHg 96%
    23:00 +23°C° 0 mm 2 m/s 761 mmHg 96%

    27 Septembrie, Miercuri

    Timp Temperatura Precipitaţii Vânt Presiune Umiditate
    00:00 +23°C° 0 mm 2 m/s 760 mmHg 95%
    01:00 +23°C° 0 mm 2 m/s 760 mmHg 95%
    02:00 +23°C° 0 mm 2 m/s 760 mmHg 95%
    03:00 +21°C° 0 mm 2 m/s 760 mmHg 96%
    04:00 +21°C° 0 mm 2 m/s 760 mmHg 96%
    05:00 +21°C° 0 mm 2 m/s 760 mmHg 94%
    06:00 +21°C° 0 mm 2 m/s 761 mmHg 92%
    07:00 +21°C° 0 mm 2 m/s 762 mmHg 90%
    08:00 +25°C° 0 mm 2 m/s 762 mmHg 76%
    09:00 +28°C° 0 mm 2 m/s 762 mmHg 62%
    10:00 +31°C° 0 mm 2 m/s 762 mmHg 48%
    11:00 +32°C° 0 mm 2 m/s 761 mmHg 44%
    12:00 +34°C° 0 mm 3 m/s 760 mmHg 40%
    13:00 +35°C° 0 mm 3 m/s 760 mmHg 35%
    14:00 +35°C° 0 mm 3 m/s 759 mmHg 38%
    15:00 +34°C° 0 mm 3 m/s 759 mmHg 40%
    16:00 +34°C° 0 mm 3 m/s 759 mmHg 43%
    17:00 +30°C° 0 mm 3 m/s 759 mmHg 57%
    18:00 +27°C° 0 mm 2 m/s 760 mmHg 72%
    19:00 +24°C° 0 mm 2 m/s 760 mmHg 87%
    20:00 +24°C° 0 mm 2 m/s 761 mmHg 90%
    21:00 +23°C° 0 mm 2 m/s 761 mmHg 93%
    22:00 +21°C° 0 mm 2 m/s 761 mmHg 96%
    23:00 +21°C° 0 mm 2 m/s 761 mmHg 96%
    Arată mai mult